Location: Rounton
(54.4000°N, 1.3500°W)
Time: 18:24:34
(UTC+01:00)

S-56A Canister/Altair - Pass Details

Date: 08 September 2024
Orbit: 636 x 2487 km, 38.9° (Epoch: 06 October)

Event Time Altitude Azimuth Distance (km) Brightness Sun altitude
Rises 00:55:31 0° 255° (WSW) 4,574 11.4 -30.0°
Reaches altitude 10° 00:58:32 10° 246° (WSW) 3,839 10.9 -30.0°
Enters shadow 00:58:49 11° 245° (WSW) 3,776 10.8 -30.0°
Maximum altitude 01:07:42 36° 186° (S) 2,904 - -30.0°
Exits shadow 01:19:15 11° 129° (SE) 4,919 11.3 -29.9°
Drops below altitude 10° 01:19:40 10° 128° (SE) 5,017 11.4 -29.9°
Sets 01:24:16 0° 121° (ESE) 6,125 11.9 -29.9°
